Time,TemperatureF,DewpointF,PressureIn,WindDirection,WindDirectionDegrees,WindSpeedMPH,WindSpeedGustMPH,Humidity,HourlyPrecipIn,Conditions,Clouds,dailyrainin,SoftwareType,DateUTC
2013-08-05 00:03:00,69.0,67.0,30.10,NE,46,0.0,-999.0,93,-99.99,,,0.00,weatherlink.com 1.10,2013-08-05 05:03:00,
2013-08-05 00:18:00,68.3,67.0,30.09,NE,46,0.0,-999.0,94,-99.99,,,0.00,weatherlink.com 1.10,2013-08-05 05:18:00,
2013-08-05 00:33:00,68.3,67.0,30.09,NE,46,0.0,-999.0,95,-99.99,,,0.00,weatherlink.com 1.10,2013-08-05 05:33:00,
2013-08-05 00:48:00,68.3,67.0,30.09,NE,46,0.0,-999.0,95,-99.99,,,0.00,weatherlink.com 1.10,2013-08-05 05:48:00,
2013-08-05 01:03:00,68.5,67.0,30.09,NE,46,0.0,-999.0,95,-99.99,,,0.00,weatherlink.com 1.10,2013-08-05 06:03:00,
2013-08-05 01:18:00,68.4,67.0,30.08,NE,46,0.0,-999.0,95,-99.99,,,0.00,weatherlink.com 1.10,2013-08-05 06:18:00,
2013-08-05 01:33:00,68.4,67.0,30.07,NE,46,0.0,-999.0,95,-99.99,,,0.00,weatherlink.com 1.10,2013-08-05 06:33:00,
2013-08-05 01:48:00,68.6,67.0,30.07,NE,46,0.0,-999.0,95,-99.99,,,0.00,weatherlink.com 1.10,2013-08-05 06:48:00,
2013-08-05 02:03:00,68.5,67.0,30.07,NE,46,0.0,-999.0,95,-99.99,,,0.00,weatherlink.com 1.10,2013-08-05 07:03:00,
2013-08-05 02:18:00,68.7,67.0,30.06,NE,46,0.0,-999.0,94,-99.99,,,0.00,weatherlink.com 1.10,2013-08-05 07:18:00,
2013-08-05 02:33:00,68.9,67.0,30.06,NE,46,0.0,-999.0,93,-99.99,,,0.00,weatherlink.com 1.10,2013-08-05 07:33:00,
2013-08-05 02:48:00,69.2,67.0,30.06,NE,46,0.0,-999.0,92,-99.99,,,0.00,weatherlink.com 1.10,2013-08-05 07:48:00,
2013-08-05 03:03:00,69.4,66.0,30.06,ENE,59,0.0,-999.0,90,-99.99,,,0.00,weatherlink.com 1.10,2013-08-05 08:03:00,
2013-08-05 03:18:00,69.4,66.0,30.06,ENE,59,0.0,-999.0,89,-99.99,,,0.00,weatherlink.com 1.10,2013-08-05 08:18:00,
2013-08-05 03:33:00,69.4,66.0,30.07,ENE,58,0.0,-999.0,89,-99.99,,,0.00,weatherlink.com 1.10,2013-08-05 08:33:00,
2013-08-05 03:48:00,69.3,66.0,30.06,ENE,58,0.0,-999.0,89,-99.99,,,0.00,weatherlink.com 1.10,2013-08-05 08:48:00,
2013-08-05 04:03:00,69.2,66.0,30.07,NE,55,0.0,-999.0,89,-99.99,,,0.00,weatherlink.com 1.10,2013-08-05 09:03:00,
2013-08-05 04:18:00,69.3,66.0,30.07,NE,55,0.0,-999.0,90,-99.99,,,0.00,weatherlink.com 1.10,2013-08-05 09:18:00,
2013-08-05 04:48:00,69.2,67.0,30.07,NE,55,0.0,-999.0,92,-99.99,,,0.00,weatherlink.com 1.10,2013-08-05 09:48:00,
2013-08-05 05:18:00,69.0,67.0,30.08,NE,55,0.0,-999.0,92,-99.99,,,0.00,weatherlink.com 1.10,2013-08-05 10:18:00,
2013-08-05 05:33:00,68.7,66.0,30.08,NE,55,0.0,-999.0,92,-99.99,,,0.00,weatherlink.com 1.10,2013-08-05 10:33:00,
2013-08-05 05:48:00,68.5,66.0,30.08,NE,55,0.0,-999.0,92,-99.99,,,0.00,weatherlink.com 1.10,2013-08-05 10:48:00,
2013-08-05 06:03:00,68.5,66.0,30.08,NE,55,0.0,-999.0,91,-99.99,,,0.00,weatherlink.com 1.10,2013-08-05 11:03:00,
2013-08-05 06:18:00,68.5,66.0,30.08,NE,55,0.0,-999.0,91,-99.99,,,0.00,weatherlink.com 1.10,2013-08-05 11:18:00,
2013-08-05 06:33:00,68.4,66.0,30.09,NE,55,0.0,-999.0,91,-99.99,,,0.00,weatherlink.com 1.10,2013-08-05 11:33:00,
2013-08-05 07:03:00,68.5,67.0,30.09,NE,55,0.0,-999.0,93,-99.99,,,0.00,weatherlink.com 1.10,2013-08-05 12:03:00,
2013-08-05 07:18:00,68.6,67.0,30.10,NE,55,0.0,-999.0,93,-99.99,,,0.00,weatherlink.com 1.10,2013-08-05 12:18:00,
2013-08-05 07:33:00,68.8,66.0,30.10,NE,55,0.0,-999.0,91,-99.99,,,0.00,weatherlink.com 1.10,2013-08-05 12:33:00,
2013-08-05 07:48:00,69.1,66.0,30.10,NE,55,0.0,-999.0,91,-99.99,,,0.00,weatherlink.com 1.10,2013-08-05 12:48:00,
2013-08-05 08:03:00,69.5,66.0,30.10,NE,55,0.0,-999.0,89,-99.99,,,0.00,weatherlink.com 1.10,2013-08-05 13:03:00,
2013-08-05 08:18:00,70.0,66.0,30.11,NE,55,0.0,-999.0,88,-99.99,,,0.00,weatherlink.com 1.10,2013-08-05 13:18:00,
2013-08-05 08:33:00,70.5,67.0,30.11,NE,55,0.0,-999.0,87,-99.99,,,0.00,weatherlink.com 1.10,2013-08-05 13:33:00,
2013-08-05 09:04:00,71.5,66.0,30.11,NE,55,0.0,-999.0,83,-99.99,,,0.00,weatherlink.com 1.10,2013-08-05 14:04:00,
2013-08-05 09:19:00,72.5,66.0,30.11,NE,55,0.0,-999.0,81,-99.99,,,0.00,weatherlink.com 1.10,2013-08-05 14:19:00,
2013-08-05 09:33:00,74.5,67.0,30.11,NE,55,3.0,-999.0,76,-99.99,,,0.00,weatherlink.com 1.10,2013-08-05 14:33:00,
2013-08-05 09:49:00,75.3,66.0,30.12,NE,46,0.0,-999.0,73,-99.99,,,0.00,weatherlink.com 1.10,2013-08-05 14:49:00,
2013-08-05 10:03:00,76.1,66.0,30.11,NE,51,0.0,-999.0,72,-99.99,,,0.00,weatherlink.com 1.10,2013-08-05 15:03:00,
2013-08-05 10:49:00,77.5,67.0,30.11,West,259,0.0,-999.0,69,-99.99,,,0.00,weatherlink.com 1.10,2013-08-05 15:49:00,
2013-08-05 11:04:00,78.5,67.0,30.11,WSW,246,0.0,-999.0,68,-99.99,,,0.00,weatherlink.com 1.10,2013-08-05 16:04:00,
2013-08-05 11:18:00,79.2,68.0,30.10,WSW,252,0.0,-999.0,68,-99.99,,,0.00,weatherlink.com 1.10,2013-08-05 16:18:00,
2013-08-05 11:34:00,78.9,67.0,30.09,WNW,288,0.0,-999.0,66,-99.99,,,0.00,weatherlink.com 1.10,2013-08-05 16:34:00,
2013-08-05 11:48:00,78.9,67.0,30.10,NNE,16,2.0,-999.0,67,-99.99,,,0.00,weatherlink.com 1.10,2013-08-05 16:48:00,
2013-08-05 12:19:00,77.9,67.0,30.10,North,355,4.0,-999.0,69,-99.99,,,0.00,weatherlink.com 1.10,2013-08-05 17:19:00,
2013-08-05 12:48:00,78.5,66.0,30.09,NE,36,0.0,-999.0,66,-99.99,,,0.00,weatherlink.com 1.10,2013-08-05 17:48:00,
2013-08-05 13:34:00,80.1,62.0,30.08,NNW,331,5.0,-999.0,55,-99.99,,,0.00,weatherlink.com 1.10,2013-08-05 18:34:00,
2013-08-05 13:49:00,81.4,67.0,30.08,WSW,243,0.0,-999.0,61,-99.99,,,0.00,weatherlink.com 1.10,2013-08-05 18:49:00,
2013-08-05 14:04:00,80.4,65.0,30.08,NNE,15,5.0,-999.0,60,-99.99,,,0.00,weatherlink.com 1.10,2013-08-05 19:04:00,
2013-08-05 14:19:00,80.0,65.0,30.08,NNW,330,0.0,-999.0,61,-99.99,,,0.00,weatherlink.com 1.10,2013-08-05 19:19:00,
2013-08-05 14:34:00,79.8,66.0,30.07,NE,35,3.0,-999.0,62,-99.99,,,0.00,weatherlink.com 1.10,2013-08-05 19:34:00,
2013-08-05 14:49:00,80.0,66.0,30.07,NNE,19,3.0,-999.0,63,-99.99,,,0.00,weatherlink.com 1.10,2013-08-05 19:49:00,
2013-08-05 15:19:00,80.3,65.0,30.05,NE,40,0.0,-999.0,60,-99.99,,,0.00,weatherlink.com 1.10,2013-08-05 20:19:00,
2013-08-05 15:34:00,80.4,66.0,30.05,NE,40,0.0,-999.0,62,-99.99,,,0.00,weatherlink.com 1.10,2013-08-05 20:34:00,
2013-08-05 15:49:00,81.0,67.0,30.05,NE,41,0.0,-999.0,62,-99.99,,,0.00,weatherlink.com 1.10,2013-08-05 20:49:00,
2013-08-05 16:04:00,81.4,66.0,30.04,NE,42,0.0,-999.0,59,-99.99,,,0.00,weatherlink.com 1.10,2013-08-05 21:04:00,
2013-08-05 16:19:00,81.2,67.0,30.04,NE,42,0.0,-999.0,63,-99.99,,,0.00,weatherlink.com 1.10,2013-08-05 21:19:00,
2013-08-05 16:34:00,80.9,68.0,30.04,NE,43,0.0,-999.0,64,-99.99,,,0.00,weatherlink.com 1.10,2013-08-05 21:34:00,
2013-08-05 16:49:00,79.8,67.0,30.05,NE,43,0.0,-999.0,64,-99.99,,,0.00,weatherlink.com 1.10,2013-08-05 21:49:00,
2013-08-05 17:04:00,79.3,66.0,30.04,NE,43,0.0,-999.0,63,-99.99,,,0.00,weatherlink.com 1.10,2013-08-05 22:04:00,
2013-08-05 17:19:00,79.1,66.0,30.04,NE,43,0.0,-999.0,65,-99.99,,,0.00,weatherlink.com 1.10,2013-08-05 22:19:00,
2013-08-05 17:34:00,79.4,66.0,30.04,NE,43,0.0,-999.0,64,-99.99,,,0.00,weatherlink.com 1.10,2013-08-05 22:34:00,
2013-08-05 17:49:00,79.1,66.0,30.04,NE,43,0.0,-999.0,65,-99.99,,,0.00,weatherlink.com 1.10,2013-08-05 22:49:00,
2013-08-05 18:04:00,79.1,67.0,30.05,NE,43,0.0,-999.0,67,-99.99,,,0.00,weatherlink.com 1.10,2013-08-05 23:04:00,
2013-08-05 18:19:00,79.3,68.0,30.04,NE,43,0.0,-999.0,68,-99.99,,,0.00,weatherlink.com 1.10,2013-08-05 23:19:00,
2013-08-05 18:34:00,78.7,67.0,30.04,NE,43,0.0,-999.0,68,-99.99,,,0.00,weatherlink.com 1.10,2013-08-05 23:34:00,
2013-08-05 18:49:00,78.0,70.0,30.04,NE,43,0.0,-999.0,76,-99.99,,,0.00,weatherlink.com 1.10,2013-08-05 23:49:00,
2013-08-05 19:04:00,77.0,68.0,30.04,NE,43,0.0,-999.0,74,-99.99,,,0.00,weatherlink.com 1.10,2013-08-06 00:04:00,
2013-08-05 19:19:00,76.7,69.0,30.04,NE,43,0.0,-999.0,78,-99.99,,,0.00,weatherlink.com 1.10,2013-08-06 00:19:00,
2013-08-05 19:34:00,76.2,69.0,30.03,NE,43,0.0,-999.0,79,-99.99,,,0.00,weatherlink.com 1.10,2013-08-06 00:34:00,
2013-08-05 19:49:00,75.8,70.0,30.04,NE,43,0.0,-999.0,83,-99.99,,,0.00,weatherlink.com 1.10,2013-08-06 00:49:00,
2013-08-05 20:04:00,74.9,71.0,30.05,NE,43,0.0,-999.0,87,-99.99,,,0.00,weatherlink.com 1.10,2013-08-06 01:04:00,
2013-08-05 20:35:00,74.2,70.0,30.04,NE,43,0.0,-999.0,87,-99.99,,,0.00,weatherlink.com 1.10,2013-08-06 01:35:00,
2013-08-05 20:50:00,73.6,70.0,30.04,NE,43,0.0,-999.0,88,-99.99,,,0.00,weatherlink.com 1.10,2013-08-06 01:50:00,
2013-08-05 21:05:00,73.1,70.0,30.05,NE,43,0.0,-999.0,90,-99.99,,,0.00,weatherlink.com 1.10,2013-08-06 02:05:00,
2013-08-05 21:20:00,73.1,69.0,30.04,NE,43,0.0,-999.0,88,-99.99,,,0.00,weatherlink.com 1.10,2013-08-06 02:20:00,
2013-08-05 21:35:00,73.2,69.0,30.03,NE,43,0.0,-999.0,87,-99.99,,,0.00,weatherlink.com 1.10,2013-08-06 02:35:00,
2013-08-05 21:50:00,73.2,69.0,30.04,NE,43,0.0,-999.0,86,-99.99,,,0.00,weatherlink.com 1.10,2013-08-06 02:50:00,
2013-08-05 22:05:00,73.1,68.0,30.04,NE,43,0.0,-999.0,85,-99.99,,,0.00,weatherlink.com 1.10,2013-08-06 03:05:00,
2013-08-05 22:20:00,73.0,69.0,30.03,NE,43,0.0,-999.0,87,-99.99,,,0.00,weatherlink.com 1.10,2013-08-06 03:20:00,
2013-08-05 22:50:00,72.2,69.0,30.03,NE,43,0.0,-999.0,88,-99.99,,,0.00,weatherlink.com 1.10,2013-08-06 03:50:00,
2013-08-05 23:05:00,72.1,68.0,30.02,NE,43,0.0,-999.0,88,-99.99,,,0.00,weatherlink.com 1.10,2013-08-06 04:05:00,
2013-08-05 23:20:00,71.6,68.0,30.03,NE,43,0.0,-999.0,89,-99.99,,,0.00,weatherlink.com 1.10,2013-08-06 04:20:00,
2013-08-05 23:35:00,71.3,68.0,30.03,NE,43,0.0,-999.0,89,-99.99,,,0.00,weatherlink.com 1.10,2013-08-06 04:35:00,
2013-08-05 23:50:00,71.3,68.0,30.02,NE,43,0.0,-999.0,88,-99.99,,,0.00,weatherlink.com 1.10,2013-08-06 04:50:00,